Flag for Canada Weather past 2 weeks in Mississauga, Ontario, Canada

Now
72 °F

Passing clouds.


Feels Like: 77 °F
Forecast: 63 / 83 °F
Wind: 8 mph from West

Location: Toronto Pearson International Airport

Current Time: Aug 1, 2015 at 10:52:57 PM

Latest Report: Aug 1, 2015 at 10:00 PM


Visibility: 15 mi

Pressure: 29.84 "Hg

Humidity: 50%

Dew point: 52 °F

Location of MississaugaLocation

Historic Weather in Mississauga — Graph

°F

Mississauga temperature yesterday

Maximum temperature yesterday: 86 °F (at 2:00 PM)
Minimum temperature yesterday: 63 °F (at 6:00 AM)
Average temperature yesterday: 75 °F

Past Weeks' High & Low Weather Summary

 TemperatureHumidityPressure
High91 °F (Jul 28, 3:00 PM)100% (Jul 18, 6:52 AM)30.03 "Hg (Jul 18, 6:52 AM)
Low59 °F (Jul 22, 5:00 AM)30% (Jul 24, 12:00 PM)29.61 "Hg (Jul 21, 3:03 AM)
Average76 °F57%29.86 "Hg
* Reported Jul 17 9:00 PM — Aug 1 9:00 PM, Mississauga, Weather by CustomWeather, © 2015

Note: Actual official high and low records may vary slightly from our data, if they occured in-between our weather recording intervals... More about our weather records

Advertising

Mississauga weather history for previous 24 hours

 ConditionsComfort  
Time TempWeatherWind HumidityBarometerVisibility
9:00 PM
Sat, Aug 1
73 °FPassing clouds.12 mph47%29.83 "Hg15 mi
8:00 PM77 °FPassing clouds.14 mph42%29.80 "Hg15 mi
7:00 PM77 °FScattered clouds.16 mph39%29.80 "Hg15 mi
6:00 PM81 °FScattered clouds.17 mph37%29.79 "Hg15 mi
5:00 PM81 °FScattered clouds.23 mph37%29.78 "Hg15 mi
4:00 PM81 °FBroken clouds.21 mph37%29.80 "Hg15 mi
3:00 PM79 °FBroken clouds.13 mph42%29.81 "Hg15 mi
2:00 PM79 °FBroken clouds.18 mph42%29.83 "Hg15 mi
1:00 PM75 °FPartly sunny.15 mph41%29.85 "Hg15 mi
12:00 PM75 °FScattered clouds.15 mph47%29.85 "Hg15 mi
11:00 AM75 °FPassing clouds.13 mph47%29.84 "Hg15 mi
10:00 AM72 °FPassing clouds.14 mph53%29.84 "Hg15 mi
9:00 AM68 °FSunny.9 mph69%29.85 "Hg15 mi
8:00 AM66 °FSunny.13 mph68%29.84 "Hg15 mi
7:00 AM63 °FClear.9 mph77%29.83 "Hg15 mi
6:00 AM63 °FPassing clouds.12 mph77%29.82 "Hg15 mi
5:00 AM64 °FPassing clouds.13 mph78%29.80 "Hg15 mi
4:00 AM64 °FClear.12 mph78%29.80 "Hg15 mi
3:00 AM64 °FPassing clouds.8 mph78%29.79 "Hg15 mi
2:00 AM64 °FPassing clouds.8 mph83%29.79 "Hg15 mi
1:00 AM66 °FPassing clouds.7 mph83%29.79 "Hg15 mi
12:00 AM68 °FPassing clouds.10 mph78%29.78 "Hg15 mi
11:00 PM
Fri, Jul 31
68 °FSprinkles. Overcast.8 mph83%29.78 "Hg15 mi
10:00 PM73 °FPartly cloudy.10 mph57%29.76 "Hg15 mi
Weather by CustomWeather, © 2015

See weather overviewHow to use our weather pages